Weather History for KCNK - November, 2010

Change the Weather History Date:

Sunday, November 7, 2010

  Actual Average Record
Temperature  
Mean Temperature 59 °F 46 °F  
Max Temperature 73 °F 57 °F 82 °F (1915)
Min Temperature 45 °F 35 °F 7 °F (1991)
Degree Days  
Heating Degree Days 6 19  
Month to date heating degree days 121  
Since 1 July heating degree days 512  
Cooling Degree Days 0 0  
Month to date cooling degree days 0  
Year to date cooling degree days 1348  
Growing Degree Days 9 (Base 50)    
Moisture  
Dew Point 32 °F    
Average Humidity 38    
Maximum Humidity 60    
Minimum Humidity 22    
Precipitation  
Precipitation 0.00 in 0.04 in 0.67 in (1925)
Month to date precipitation 0.32  
Year to date precipitation 26.25  
Snow  
Snow 0.00 in 0.10 in 1.30 in (1953)
Month to date snowfall 0.3  
Year to date snowfall 14.2  
Since 1 July snowfall 0.5  
Snow Depth -    
Sea Level Pressure  
Sea Level Pressure 29.98 in    
Wind  
Wind Speed 15 mph (South)    
Max Wind Speed 28 mph    
Max Gust Speed 44 mph    
Visibility 10 miles    
Events      
T = Trace of Precipitation, MM = Missing Value Source: NWS Daily Summary

Daily Weather History Graph

Daily Weather History Graph

Search for Another Location

Airport or City:

Trip Planner

Search our weather history database for the weather conditions in past years. The results will help you decide how hot, cold, wet, or windy it might be!

Date:

Astronomy

Nov. 07, 2010 Rise Set
Actual Time 7:05 AM CST 5:22 PM CST
Civil Twilight 6:37 AM CST 5:50 PM CST
Nautical Twilight 6:05 AM CST 6:22 PM CST
Astronomical Twilight 5:33 AM CST 6:54 PM CST
Moon 8:52 AM CST (11/7) 6:23 PM CST (11/7)
Length of Visible Light 11h 13m
Length of Day
10h 16m
Waxing Crescent, 3% of the Moon is Illuminated
Nov 7
Waxing Crescent
Nov 13
First Quarter
Nov 21
Full
Nov 28
Last Quarter
Dec 5
New

Hourly Weather History & Observations

Time (CST) Temp. Windchill Dew Point Humidity Pressure Visibility Wind Dir Wind Speed Gust Speed Precip Events Conditions
12:55 AM 52.0 °F - 32.0 °F 47% 30.10 in 10.0 mi SSW 15.0 mph - N/A   Clear
1:55 AM 52.0 °F - 32.0 °F 47% 30.09 in 10.0 mi SSW 16.1 mph - N/A   Clear
1:55 AM 51.1 °F - 32.0 °F 48% 30.09 in 10.0 mi South 15.0 mph - N/A   Clear
2:55 AM 51.1 °F - 32.0 °F 48% 30.08 in 10.0 mi SSW 13.8 mph - N/A   Clear
3:55 AM 51.1 °F - 32.0 °F 48% 30.07 in 10.0 mi SSW 13.8 mph - N/A   Clear
4:55 AM 46.9 °F - 32.0 °F 56% 30.09 in 10.0 mi Variable 4.6 mph - N/A   Clear
5:55 AM 46.4 °F 43.5 °F 32.0 °F 57% 30.09 in 10.0 mi South 5.8 mph - N/A   Clear
6:55 AM 45.0 °F 41.2 °F 32.0 °F 60% 30.09 in 10.0 mi SSW 6.9 mph - N/A   Clear
7:55 AM 46.9 °F - 33.1 °F 59% 30.09 in 10.0 mi Variable 6.9 mph 16.1 mph N/A   Clear
8:55 AM 51.1 °F - 34.0 °F 52% 30.09 in 10.0 mi SSW 10.4 mph 17.3 mph N/A   Clear
9:55 AM 57.0 °F - 34.0 °F 42% 30.09 in 10.0 mi SSW 10.4 mph 18.4 mph N/A   Clear
10:55 AM 62.1 °F - 34.0 °F 35% 30.06 in 10.0 mi South 12.7 mph - N/A   Clear
11:55 AM 66.9 °F - 34.0 °F 30% 30.01 in 10.0 mi SSE 15.0 mph 23.0 mph N/A   Clear
12:55 PM 70.0 °F - 34.0 °F 27% 29.96 in 10.0 mi South 18.4 mph 29.9 mph N/A   Clear
1:55 PM 72.0 °F - 33.1 °F 24% 29.93 in 10.0 mi South 20.7 mph 29.9 mph N/A   Clear
2:55 PM 73.0 °F - 32.0 °F 22% 29.89 in 10.0 mi South 18.4 mph 31.1 mph N/A   Clear
3:55 PM 71.1 °F - 30.0 °F 22% 29.89 in 10.0 mi South 19.6 mph 32.2 mph N/A   Clear
4:55 PM 68.0 °F - 30.0 °F 24% 29.86 in 10.0 mi South 19.6 mph 31.1 mph N/A   Clear
5:55 PM 66.0 °F - 28.9 °F 25% 29.86 in 10.0 mi South 17.3 mph - N/A   Clear
6:55 PM 66.0 °F - 27.0 °F 23% 29.87 in 10.0 mi South 25.3 mph 34.5 mph N/A   Clear
7:55 PM 64.0 °F - 27.0 °F 25% 29.85 in 10.0 mi South 27.6 mph 43.7 mph N/A   Clear
8:55 PM 62.1 °F - 30.0 °F 30% 29.84 in 10.0 mi South 26.5 mph 42.6 mph N/A   Clear
9:55 PM 61.0 °F - 30.9 °F 32% 29.83 in 10.0 mi South 26.5 mph 36.8 mph N/A   Clear
10:55 PM 60.1 °F - 32.0 °F 35% 29.81 in 10.0 mi South 26.5 mph 34.5 mph N/A   Clear